TimeEET,TemperatureF,Dew PointF,Humidity,Sea Level PressureIn,VisibilityMPH,Wind Direction,Wind SpeedMPH,Gust SpeedMPH,PrecipitationIn,Events,Conditions,WindDirDegrees,DateUTC
12:20 AM,59.0,50.0,72,29.98,-9999.0,ENE,3.5,-,N/A,,Clear,60,2012-10-30 22:20:00
12:50 AM,59.0,50.0,72,29.98,-9999.0,Variable,3.5,-,N/A,,Clear,0,2012-10-30 22:50:00
1:20 AM,59.0,50.0,72,29.98,-9999.0,Variable,3.5,-,N/A,,Clear,0,2012-10-30 23:20:00
1:50 AM,59.0,50.0,72,29.98,-9999.0,Variable,4.6,-,N/A,,Clear,0,2012-10-30 23:50:00
2:00 AM,59,49,62,29.99,6,East,4.6,,,,,80,2012-10-31 00:00:00
2:20 AM,57.2,50.0,77,29.98,-9999.0,NE,4.6,-,N/A,,Clear,40,2012-10-31 00:20:00
2:50 AM,53.6,50.0,88,29.98,-9999.0,North,4.6,-,N/A,,Clear,360,2012-10-31 00:50:00
3:20 AM,53.6,51.8,94,29.98,-9999.0,North,5.8,-,N/A,,Clear,350,2012-10-31 01:20:00
3:50 AM,53.6,51.8,94,29.98,-9999.0,North,4.6,-,N/A,,Clear,360,2012-10-31 01:50:00
4:20 AM,53.6,51.8,94,29.98,-9999.0,North,4.6,-,N/A,,Clear,360,2012-10-31 02:20:00
4:50 AM,53.6,51.8,94,29.98,-9999.0,North,4.6,-,N/A,,Clear,360,2012-10-31 02:50:00
5:20 AM,53.6,51.8,94,29.98,-9999.0,NNE,4.6,-,N/A,,Clear,20,2012-10-31 03:20:00
5:50 AM,53.6,51.8,94,30.01,-9999.0,Variable,2.3,-,N/A,,Clear,0,2012-10-31 03:50:00
6:20 AM,53.6,51.8,94,30.01,-9999.0,Variable,2.3,-,N/A,,Clear,0,2012-10-31 04:20:00
6:50 AM,55.4,51.8,88,30.01,-9999.0,Variable,2.3,-,N/A,,Clear,0,2012-10-31 04:50:00
7:20 AM,53.6,51.8,94,30.01,-9999.0,North,4.6,-,N/A,,Clear,360,2012-10-31 05:20:00
7:50 AM,57.2,51.8,82,30.04,-9999.0,NNE,4.6,-,N/A,,Clear,20,2012-10-31 05:50:00
8:00 AM,58,51,69,30.04,6,NNE,4.6,,,,Partly Cloudy,20,2012-10-31 06:00:00
8:20 AM,60.8,50.0,68,30.04,-9999.0,Variable,2.3,-,N/A,,Clear,0,2012-10-31 06:20:00
8:50 AM,62.6,50.0,63,30.04,-9999.0,East,4.6,-,N/A,,Clear,100,2012-10-31 06:50:00
9:20 AM,62.6,50.0,63,30.04,-9999.0,East,4.6,-,N/A,,Clear,100,2012-10-31 07:20:00
9:50 AM,62.6,50.0,63,30.04,-9999.0,East,5.8,-,N/A,,Clear,100,2012-10-31 07:50:00
10:20 AM,64.4,50.0,59,30.04,-9999.0,ESE,5.8,-,N/A,,Clear,110,2012-10-31 08:20:00
10:50 AM,64.4,50.0,59,30.06,-9999.0,ESE,6.9,-,N/A,,Clear,110,2012-10-31 08:50:00
11:20 AM,64.4,48.2,56,30.04,-9999.0,East,4.6,-,N/A,,Clear,80,2012-10-31 09:20:00
11:50 AM,66.2,46.4,49,30.04,-9999.0,ENE,3.5,-,N/A,,Clear,60,2012-10-31 09:50:00
12:20 PM,68.0,46.4,46,30.04,-9999.0,Variable,3.5,-,N/A,,Clear,0,2012-10-31 10:20:00
12:50 PM,69.8,42.8,38,30.01,-9999.0,Variable,4.6,-,N/A,,Clear,0,2012-10-31 10:50:00
1:20 PM,69.8,42.8,38,30.01,-9999.0,Variable,3.5,-,N/A,,Clear,0,2012-10-31 11:20:00
1:50 PM,69.8,42.8,38,30.01,-9999.0,Variable,2.3,-,N/A,,Clear,0,2012-10-31 11:50:00
2:00 PM,71,41,22,30.02,6,West,2.3,,,,,270,2012-10-31 12:00:00
2:20 PM,69.8,42.8,38,30.01,-9999.0,West,3.5,-,N/A,,Clear,270,2012-10-31 12:20:00
2:50 PM,69.8,42.8,38,30.01,-9999.0,West,3.5,-,N/A,,Clear,270,2012-10-31 12:50:00
3:20 PM,68.0,44.6,43,30.01,-9999.0,South,4.6,-,N/A,,Clear,190,2012-10-31 13:20:00
3:50 PM,68.0,42.8,40,30.04,-9999.0,Variable,3.5,-,N/A,,Clear,0,2012-10-31 13:50:00
4:20 PM,68.0,51.8,56,30.01,6.2,NNE,9.2,-,N/A,,Partly Cloudy,30,2012-10-31 14:20:00
4:50 PM,66.2,51.8,60,30.01,-9999.0,NNE,9.2,-,N/A,,Clear,30,2012-10-31 14:50:00
5:20 PM,66.2,51.8,60,30.04,-9999.0,NE,6.9,-,N/A,,Clear,40,2012-10-31 15:20:00
5:50 PM,64.4,51.8,64,30.04,-9999.0,ENE,8.1,-,N/A,,Clear,60,2012-10-31 15:50:00
6:20 PM,64.4,53.6,68,30.04,-9999.0,NE,8.1,-,N/A,,Clear,50,2012-10-31 16:20:00
6:50 PM,64.4,55.4,73,30.04,-9999.0,NE,8.1,-,N/A,,Clear,50,2012-10-31 16:50:00
7:20 PM,62.6,55.4,77,30.04,-9999.0,ENE,8.1,-,N/A,,Clear,70,2012-10-31 17:20:00
7:50 PM,62.6,53.6,72,30.04,-9999.0,ENE,8.1,-,N/A,,Clear,70,2012-10-31 17:50:00
8:00 PM,63,54,64,30.05,6,ENE,8.1,,,,,70,2012-10-31 18:00:00
8:20 PM,62.6,53.6,72,30.04,-9999.0,ENE,5.8,-,N/A,,Clear,70,2012-10-31 18:20:00
8:50 PM,62.6,53.6,72,30.06,-9999.0,ENE,5.8,-,N/A,,Clear,60,2012-10-31 18:50:00
9:20 PM,62.6,53.6,72,30.06,-9999.0,ENE,6.9,-,N/A,,Clear,70,2012-10-31 19:20:00
9:50 PM,62.6,53.6,72,30.06,-9999.0,ENE,3.5,-,N/A,,Clear,60,2012-10-31 19:50:00
10:20 PM,62.6,53.6,72,30.06,-9999.0,NE,4.6,-,N/A,,Clear,50,2012-10-31 20:20:00
10:50 PM,60.8,53.6,77,30.06,-9999.0,NE,4.6,-,N/A,,Clear,40,2012-10-31 20:50:00
11:20 PM,60.8,53.6,77,30.06,-9999.0,NE,4.6,-,N/A,,Clear,40,2012-10-31 21:20:00
11:50 PM,60.8,53.6,77,30.04,-9999.0,NNE,4.6,-,N/A,,Clear,20,2012-10-31 21:50:00